Zurück zum Katalog

ARIANE 5 R/B

AktivGTO
NORAD 28787·ROCKET BODY·🇫🇷 France

Gestartet Aug 11, 2005 von Guiana Space Centre

Loading…

TLE

AlterndSource: Space-Track

Epoche: Sep 14, 2026, 14:59 UTC

1 28787U 05028B   26257.62496977 -.00000048  00000-0  37384-3 0  9990
2 28787   6.5938 189.1112 7163965 217.2481  60.5992  2.26683689174676

Verfolge ARIANE 5 R/B in Echtzeit mit AllMySat

Download on the App Store